Flag for U.S.A. Weather past 2 weeks in Victorville, California, U.S.A.

Now
79 °F

Sunny.


Feels Like: 77 °F
Forecast: 60 / 85 °F
Wind: No wind

Location: George Air Force Base / Victorvi

Current Time: Jul 7, 2015 at 9:31:02 PM

Latest Report: Jul 7, 2015 at 8:35 PM


Visibility: 10 mi

Pressure: 29.90 "Hg (27.20 "Hg at 830m altitude)

Humidity: 13%

Dew point: 25 °F

Location of VictorvilleLocation

Historic Weather in Victorville — Graph

°F

Victorville temperature yesterday

Maximum temperature yesterday: 99 °F (at 2:15 PM)
Minimum temperature yesterday: 68 °F (at 3:35 AM)
Average temperature yesterday: 83 °F

Past Weeks' High & Low Weather Summary

 TemperatureHumidityPressure
High104 °F (Jun 30, 1:55 PM)74% (Jul 1, 7:15 AM)30.10 "Hg (Jul 1, 7:15 AM)
Low63 °F (Jun 23, 5:35 AM)5% (Jun 25, 12:55 PM)29.84 "Hg (Jul 4, 4:35 PM)
Average84 °F24%29.99 "Hg
* Reported Jun 22 7:15 PM — Jul 7 7:55 PM, Victorville, Weather by CustomWeather, © 2015

Note: Actual official high and low records may vary slightly from our data, if they occured in-between our weather recording intervals... More about our weather records

Advertising

Victorville weather history for previous 24 hours

 ConditionsComfort  
Time TempWeatherWind HumidityBarometerVisibility
7:55 PM
Tue, Jul 7
81 °FSunny.13 mph12%29.89 "Hg10 mi
7:15 PM82 °FSunny.17 mph12%29.88 "Hg10 mi
6:55 PM84 °FSunny.17 mph11%29.87 "Hg10 mi
6:15 PM88 °FSunny.26 mph9%29.86 "Hg10 mi
5:55 PM90 °FSunny.29 mph9%29.85 "Hg10 mi
5:15 PM91 °FSunny.29 mph9%29.86 "Hg10 mi
4:55 PM93 °FSunny.24 mph8%29.87 "Hg10 mi
4:15 PM93 °FSunny.24 mph7%29.88 "Hg10 mi
3:55 PM95 °FSunny.24 mph7%29.89 "Hg10 mi
3:15 PM97 °FSunny.25 mph5%29.90 "Hg10 mi
2:15 PM97 °FSunny.18 mph6%29.92 "Hg10 mi
1:55 PM97 °FSunny.22 mph6%29.92 "Hg10 mi
1:35 PM97 °FSunny.16 mph7%29.93 "Hg10 mi
1:15 PM97 °FSunny.20 mph7%29.95 "Hg10 mi
12:55 PM97 °FScattered clouds.14 mph7%29.96 "Hg10 mi
12:15 PM91 °FSunny.No wind15%29.97 "Hg10 mi
11:55 AM90 °FSunny.No wind16%29.98 "Hg10 mi
11:35 AM90 °FSunny.No wind16%29.98 "Hg10 mi
11:15 AM88 °FSunny.No wind18%29.99 "Hg10 mi
10:55 AM88 °FSunny.No wind21%29.99 "Hg10 mi
10:35 AM86 °FSunny.No wind24%30.00 "Hg10 mi
10:15 AM82 °FSunny.No wind26%30.00 "Hg10 mi
9:55 AM82 °FSunny.No wind26%30.00 "Hg10 mi
9:35 AM81 °FSunny.No wind28%30.00 "Hg10 mi
9:15 AM79 °FSunny.No wind32%30.01 "Hg10 mi
8:55 AM79 °FSunny.No wind32%30.02 "Hg10 mi
8:35 AM75 °FSunny.No wind36%30.03 "Hg10 mi
8:15 AM75 °FSunny.No wind36%30.03 "Hg10 mi
7:55 AM73 °FSunny.No wind36%30.03 "Hg10 mi
7:35 AM72 °FSunny.No wind38%30.04 "Hg10 mi
7:15 AM72 °FSunny.No wind38%30.04 "Hg10 mi
6:55 AM70 °FSunny.No wind38%30.04 "Hg10 mi
6:35 AM66 °FClear.No wind43%30.03 "Hg10 mi
6:15 AM64 °FClear.No wind43%30.03 "Hg10 mi
5:55 AM66 °FClear.No wind43%30.03 "Hg10 mi
5:35 AM66 °FClear.No wind43%30.03 "Hg10 mi
5:15 AM64 °FClear.No wind46%30.02 "Hg10 mi
4:55 AM68 °FClear.No wind40%30.02 "Hg10 mi
4:35 AM68 °FClear.No wind40%30.02 "Hg10 mi
4:15 AM70 °FClear.No wind38%30.01 "Hg10 mi
3:55 AM66 °FClear.No wind46%30.01 "Hg10 mi
3:35 AM66 °FClear.No wind46%30.01 "Hg10 mi
3:15 AM66 °FClear.No wind49%30.01 "Hg10 mi
2:55 AM66 °FClear.No wind49%30.01 "Hg10 mi
2:35 AM66 °FClear.No wind49%30.01 "Hg10 mi
2:15 AM68 °FClear.No wind46%30.01 "Hg10 mi
1:55 AM66 °FClear.No wind49%30.02 "Hg10 mi
1:35 AM70 °FClear.No wind43%30.02 "Hg10 mi
1:15 AM70 °FClear.No wind46%30.03 "Hg10 mi
12:55 AM70 °FClear.No wind46%30.02 "Hg10 mi
12:35 AM70 °FClear.No wind50%30.03 "Hg10 mi
12:15 AM72 °FClear.No wind44%30.03 "Hg10 mi
11:55 PM
Mon, Jul 6
73 °FClear.No wind33%30.04 "Hg10 mi
11:35 PM73 °FClear.No wind33%30.03 "Hg10 mi
11:15 PM73 °FClear.No wind41%30.03 "Hg10 mi
10:55 PM73 °FClear.No wind41%30.03 "Hg10 mi
10:35 PM75 °FClear.No wind39%30.03 "Hg10 mi
10:15 PM75 °FClear.No wind39%30.03 "Hg10 mi
9:55 PM77 °FClear.No wind36%30.02 "Hg10 mi
9:15 PM79 °FClear.9 mph32%30.01 "Hg10 mi
Weather by CustomWeather, © 2015

See weather overviewHow to use our weather pages